Weather History for Elkins, WV

Change the Weather History Date:

Saturday, November 3, 2012

  Actual Average Record
Temperature  
Mean Temperature 34 °F 46 °F  
Max Temperature 37 °F 59 °F 80 °F (1946)
Min Temperature 31 °F 33 °F 14 °F (1951)
Degree Days  
Heating Degree Days 31 19  
Month to date heating degree days 83 57  
Since 1 July heating degree days 644 648  
Cooling Degree Days 0 0  
Month to date cooling degree days 0 0  
Year to date cooling degree days 675 475  
Moisture  
Dew Point 27 °F    
Average Humidity 77    
Maximum Humidity 85    
Minimum Humidity 69    
Precipitation  
Precipitation 0.00 in 0.11 in 1.45 in (1927)
Month to date precipitation 0.01 0.34  
Year to date precipitation 41.67 39.63  
Snow  
Snow 0.00 in - - ()
Month to date snowfall 0.0  
Since 1 September snowfall 18.0  
Snow Depth 0.00 in    
Sea Level Pressure  
Sea Level Pressure 30.13 in    
Wind  
Wind Speed 6 mph (NW)    
Max Wind Speed 14 mph    
Max Gust Speed 20 mph    
Visibility 10 miles    
Events      
T = Trace of Precipitation, MM = Missing Value Source: NWS Daily Summary

Daily Weather History Graph

Daily Weather History Graph

Search for Another Location

Airport:

Trip Planner

Search our weather history database for the weather conditions in past years. The results will help you decide how hot, cold, wet, or windy it might be!

Date:

Astronomy

Nov. 03, 2012 Rise Set
Actual Time 7:49 AM EDT 6:16 PM EDT
Civil Twilight 7:21 AM EDT 6:43 PM EDT
Nautical Twilight 6:49 AM EDT 7:15 PM EDT
Astronomical Twilight 6:18 AM EDT 7:46 PM EDT
Moon 9:56 PM EDT (11/3) 11:51 AM EDT (11/3)
Length of Visible Light 11h 22m
Length of Day
10h 26m
Waning Gibbous, 80% of the Moon is Illuminated
Nov 3
Waning Gibbous
Nov 6
Last Quarter
Nov 13
New
Nov 20
First Quarter
Nov 28
Full

Hourly Weather History & Observations

Time (EDT) Temp. Windchill Dew Point Humidity Pressure Visibility Wind Dir Wind Speed Gust Speed Precip Events Conditions
12:51 AM 36.0 °F 28.5 °F 27.0 °F 70% 30.05 in 10.0 mi WNW 10.4 mph - N/A   Overcast
1:51 AM 36.0 °F 28.0 °F 27.0 °F 70% 30.06 in 10.0 mi WNW 11.5 mph - N/A   Overcast
2:51 AM 34.0 °F 27.2 °F 28.0 °F 79% 30.06 in 10.0 mi NW 8.1 mph 19.6 mph N/A   Overcast
3:51 AM 34.0 °F 26.0 °F 26.1 °F 73% 30.07 in 10.0 mi NNW 10.4 mph 16.1 mph N/A   Overcast
4:51 AM 34.0 °F 31.0 °F 25.0 °F 70% 30.07 in 10.0 mi NW 3.5 mph - N/A   Overcast
5:51 AM 34.0 °F 28.0 °F 26.1 °F 73% 30.09 in 10.0 mi WNW 6.9 mph - N/A   Overcast
6:51 AM 34.0 °F 26.6 °F 26.1 °F 73% 30.12 in 10.0 mi West 9.2 mph - N/A   Overcast
7:51 AM 34.0 °F 27.2 °F 26.1 °F 73% 30.14 in 10.0 mi WNW 8.1 mph - N/A   Overcast
8:51 AM 34.0 °F 26.0 °F 27.0 °F 75% 30.15 in 10.0 mi WNW 10.4 mph 16.1 mph N/A   Overcast
9:51 AM 35.1 °F 28.6 °F 27.0 °F 72% 30.16 in 10.0 mi WNW 8.1 mph - N/A   Overcast
10:51 AM 35.1 °F 27.4 °F 27.0 °F 72% 30.17 in 10.0 mi West 10.4 mph - N/A   Overcast
11:51 AM 36.0 °F 29.0 °F 27.0 °F 70% 30.17 in 10.0 mi WNW 9.2 mph - N/A   Overcast
12:51 PM 36.0 °F 29.0 °F 27.0 °F 70% 30.17 in 10.0 mi NW 9.2 mph - N/A   Overcast
1:51 PM 36.0 °F 31.1 °F 27.0 °F 70% 30.16 in 10.0 mi WNW 5.8 mph 17.3 mph N/A   Overcast
2:51 PM 37.0 °F 31.0 °F 28.0 °F 70% 30.14 in 10.0 mi WNW 8.1 mph - N/A   Overcast
3:51 PM 37.0 °F 32.4 °F 28.0 °F 70% 30.15 in 10.0 mi NW 5.8 mph - N/A   Overcast
4:51 PM 37.0 °F 33.3 °F 28.0 °F 70% 30.16 in 10.0 mi NNW 4.6 mph - N/A   Overcast
5:51 PM 37.0 °F - 28.0 °F 70% 30.12 in 10.0 mi Calm Calm - N/A   Overcast
6:51 PM 36.0 °F 33.3 °F 28.0 °F 73% 30.15 in 10.0 mi North 3.5 mph - N/A   Overcast
7:51 PM 36.0 °F - 28.9 °F 76% 30.15 in 10.0 mi Calm Calm - N/A   Overcast
8:51 PM 35.1 °F - 28.9 °F 78% 30.16 in 10.0 mi Calm Calm - N/A   Overcast
9:51 PM 34.0 °F - 28.9 °F 82% 30.15 in 10.0 mi Calm Calm - N/A   Scattered Clouds
10:30 PM 30.2 °F - 28.4 °F 93% 30.09 in 10.0 mi Calm Calm - N/A   Mostly Cloudy
10:51 PM 32.0 °F - 28.0 °F 85% 30.16 in 10.0 mi Calm Calm - N/A   Overcast
11:19 PM 33.8 °F - 30.2 °F 87% 30.09 in 10.0 mi Calm Calm - N/A   Overcast
11:51 PM 33.1 °F - 28.9 °F 85% 30.16 in 10.0 mi Calm Calm - N/A   Overcast